Location: Noulens
(43.8099°N, 0.1664°E)
Time: 16:53:06
(UTC+00:00)

MOZ.5/SAFIR/RUBIN 5/SL-8 - Pass Details

Date: 07 June 2020
Orbit: 679 x 705 km, 98.1° (Epoch: 08 July)

Event Time Altitude Azimuth Distance (km) Brightness Sun altitude
Exits shadow 02:07:55 31° 227° (SW) 1,196 4.5 -17.1°
Maximum altitude 02:09:15 37° 263° (W) 1,053 4.4 -16.9°
Drops below altitude 10° 02:13:34 10° 331° (NNW) 2,132 6.7 -16.5°
Sets 02:15:58 0° 339° (NNW) 3,055 7.7 -16.3°
